カタログに戻る

STARLINK-30492

運用中通信VLEO
NORAD 57921·PAYLOAD·🇺🇸 United States

打ち上げ Sep 24, 2023 から Cape Canaveral Space Force Station

Loading…

次のパス (今後24時間)

TLE

最新Source: CelesTrak SupGP

元期: Sep 15, 2026, 02:48 UTC

1 57921C 23147J   26258.11715278  .00041078  00000+0  14879-2 0  2584
2 57921  43.0010 335.5632 0001642 270.4746 205.2317 15.27556102    19

AllMySatでSTARLINK-30492をリアルタイム追跡

Download on the App Store